EVA186 RCTP-ROAH

Flight info

Callsign EVA186
Flight time 0h 55m
Altitude 39000
Route KUDOS1A KUDOS R595 SEDKU Y573 MJC Y57 VELNO
Aircraft B77W/H-SDE1E2E3FGHIJ2J3J4J5M1RWXY/LB1D1

Departure

Time 2026-04-23 15:09
Airport Taiwan Taoyuan International Airport (RCTP)

Arrival

Time 2026-04-23 16:04
Airport Naha International Airport (ROAH)
Time Latitude Longitude Altitude Speed Heading
2026-04-23 13:25 25.07552 121.23378 106 ft 0 kts 319°
2026-04-23 14:48 25.07553 121.23377 236 ft 0 kts 319°
2026-04-23 14:52 25.07547 121.23383 106 ft 3 kts 319°
2026-04-23 14:52 25.07531 121.23398 103 ft 3 kts 319°
2026-04-23 14:52 25.07517 121.23412 103 ft 3 kts 319°
2026-04-23 14:53 25.07501 121.23427 105 ft 3 kts 319°
2026-04-23 14:53 25.07486 121.23442 106 ft 3 kts 306°
2026-04-23 14:53 25.07477 121.23460 103 ft 3 kts 274°
2026-04-23 14:53 25.07479 121.23479 103 ft 2 kts 235°
2026-04-23 14:54 25.07486 121.23489 103 ft 2 kts 229°
2026-04-23 14:54 25.07499 121.23505 105 ft 2 kts 229°
2026-04-23 14:54 25.07503 121.23510 103 ft 0 kts 229°
2026-04-23 14:59 25.07500 121.23505 105 ft 1 kts 229°
2026-04-23 14:59 25.07492 121.23496 106 ft 2 kts 229°
2026-04-23 14:59 25.07469 121.23466 108 ft 9 kts 229°
2026-04-23 14:59 25.07426 121.23412 108 ft 10 kts 229°
2026-04-23 15:00 25.07380 121.23353 109 ft 11 kts 229°
2026-04-23 15:00 25.07330 121.23288 107 ft 11 kts 229°
2026-04-23 15:00 25.07284 121.23229 109 ft 8 kts 229°
2026-04-23 15:00 25.07258 121.23196 108 ft 9 kts 228°
2026-04-23 15:01 25.07185 121.23203 98 ft 9 kts 141°
2026-04-23 15:01 25.07134 121.23248 107 ft 10 kts 141°
2026-04-23 15:01 25.07074 121.23276 107 ft 10 kts 197°
2026-04-23 15:01 25.07020 121.23222 106 ft 11 kts 229°
2026-04-23 15:02 25.06986 121.23179 107 ft 12 kts 229°
2026-04-23 15:02 25.06883 121.23049 107 ft 18 kts 229°
2026-04-23 15:02 25.06800 121.22943 106 ft 18 kts 229°
2026-04-23 15:02 25.06716 121.22836 105 ft 18 kts 229°
2026-04-23 15:03 25.06630 121.22728 107 ft 19 kts 229°
2026-04-23 15:03 25.06544 121.22619 105 ft 19 kts 229°
2026-04-23 15:03 25.06457 121.22509 105 ft 19 kts 229°
2026-04-23 15:03 25.06391 121.22425 108 ft 7 kts 229°
2026-04-23 15:04 25.06359 121.22384 106 ft 8 kts 229°
2026-04-23 15:04 25.06322 121.22337 107 ft 8 kts 229°
2026-04-23 15:04 25.06282 121.22286 107 ft 9 kts 229°
2026-04-23 15:04 25.06239 121.22247 106 ft 8 kts 197°
2026-04-23 15:05 25.06203 121.22255 105 ft 8 kts 151°
2026-04-23 15:05 25.06180 121.22275 104 ft 0 kts 139°
2026-04-23 15:05 25.06177 121.22278 105 ft 2 kts 139°
2026-04-23 15:05 25.06157 121.22297 106 ft 5 kts 139°
2026-04-23 15:06 25.06122 121.22331 104 ft 8 kts 139°
2026-04-23 15:06 25.06179 121.22276 104 ft 0 kts 139°
2026-04-23 15:06 25.06178 121.22277 -26 ft 2 kts 139°
2026-04-23 15:06 25.06160 121.22295 104 ft 5 kts 138°
2026-04-23 15:07 25.06123 121.22331 104 ft 6 kts 138°
2026-04-23 15:07 25.06103 121.22361 103 ft 5 kts 103°
2026-04-23 15:07 25.06101 121.22398 101 ft 8 kts 93°
2026-04-23 15:07 25.06157 121.22448 101 ft 23 kts 49°
2026-04-23 15:08 25.06399 121.22755 102 ft 94 kts 49°
2026-04-23 15:08 25.06546 121.22942 100 ft 119 kts 49°
2026-04-23 15:08 25.07813 121.24503 657 ft 178 kts 47°
2026-04-23 15:09 25.09394 121.26537 2334 ft 183 kts 50°
2026-04-23 15:09 25.10295 121.27742 2602 ft 223 kts 50°
2026-04-23 15:09 25.11363 121.29168 2872 ft 262 kts 49°
2026-04-23 15:09 25.12646 121.30744 3375 ft 287 kts 45°
2026-04-23 15:10 25.13582 121.31815 3892 ft 295 kts 45°
2026-04-23 15:10 25.15026 121.33439 4829 ft 301 kts 44°
2026-04-23 15:10 25.17034 121.35687 5925 ft 312 kts 45°
2026-04-23 15:10 25.18545 121.37425 6881 ft 315 kts 45°
2026-04-23 15:11 25.19558 121.38603 7482 ft 319 kts 46°
2026-04-23 15:11 25.21105 121.40403 8324 ft 327 kts 45°
2026-04-23 15:11 25.22672 121.42219 9165 ft 333 kts 45°
2026-04-23 15:11 25.24574 121.44413 11300 ft 208 kts 41°
2026-04-23 15:12 25.25940 121.45996 10685 ft 354 kts 44°
2026-04-23 15:12 25.27722 121.48038 10981 ft 384 kts 44°
2026-04-23 15:12 25.29479 121.50352 11233 ft 406 kts 59°
2026-04-23 15:12 25.30459 121.53310 11914 ft 417 kts 84°
2026-04-23 15:13 25.30318 121.56497 12849 ft 416 kts 109°
2026-04-23 15:13 25.29133 121.59377 13743 ft 412 kts 132°
2026-04-23 15:13 25.27097 121.61512 14581 ft 399 kts 156°
2026-04-23 15:13 25.24620 121.62731 15372 ft 388 kts 165°
2026-04-23 15:14 25.22246 121.64328 15788 ft 419 kts 142°
2026-04-23 15:14 25.20520 121.66978 16788 ft 434 kts 118°
2026-04-23 15:14 25.19711 121.70202 17804 ft 442 kts 99°
2026-04-23 15:14 25.19415 121.73608 18675 ft 447 kts 96°
2026-04-23 15:15 25.19073 121.77016 18992 ft 443 kts 100°
2026-04-23 15:15 25.18456 121.80433 20100 ft 456 kts 106°
2026-04-23 15:15 25.17625 121.83818 20975 ft 456 kts 109°
2026-04-23 15:15 25.16667 121.87171 21803 ft 458 kts 111°
2026-04-23 15:16 25.15656 121.90530 22581 ft 462 kts 111°
2026-04-23 15:16 25.14645 121.93920 23320 ft 467 kts 111°
2026-04-23 15:16 25.13638 121.97363 23948 ft 472 kts 110°
2026-04-23 15:16 25.12784 122.00838 24479 ft 479 kts 102°
2026-04-23 15:17 25.12366 122.04494 23957 ft 479 kts 95°
2026-04-23 15:17 25.12272 122.08067 23778 ft 465 kts 92°
2026-04-23 15:17 25.11974 122.12119 26035 ft 499 kts 96°
2026-04-23 15:17 25.11709 122.15904 26621 ft 503 kts 97°
2026-04-23 15:18 25.11402 122.19750 27227 ft 506 kts 97°
2026-04-23 15:18 25.11070 122.23640 27792 ft 510 kts 98°
2026-04-23 15:18 25.10731 122.27567 28334 ft 515 kts 98°
2026-04-23 15:18 25.10382 122.31510 28846 ft 519 kts 98°
2026-04-23 15:19 25.09995 122.35494 29367 ft 524 kts 98°
2026-04-23 15:19 25.09603 122.39482 30148 ft 520 kts 98°
2026-04-23 15:19 25.09221 122.43416 31102 ft 512 kts 98°
2026-04-23 15:19 25.08841 122.47354 31602 ft 517 kts 98°
2026-04-23 15:20 25.08457 122.51298 31745 ft 529 kts 98°
2026-04-23 15:20 25.08056 122.55419 31908 ft 539 kts 98°
2026-04-23 15:20 25.07656 122.59529 32147 ft 546 kts 98°
2026-04-23 15:20 25.07251 122.63693 32466 ft 549 kts 98°
2026-04-23 15:21 25.06842 122.67896 33003 ft 548 kts 98°
2026-04-23 15:21 25.06435 122.72067 33537 ft 547 kts 98°
2026-04-23 15:21 25.06025 122.76242 34032 ft 546 kts 98°
2026-04-23 15:21 25.05617 122.80384 34488 ft 545 kts 98°
2026-04-23 15:22 25.05207 122.84533 34985 ft 542 kts 98°
2026-04-23 15:22 25.04399 122.92688 35007 ft 520 kts 98°
2026-04-23 15:22 25.04010 122.96599 34942 ft 506 kts 99°
2026-04-23 15:23 25.03631 123.00397 34926 ft 491 kts 99°
2026-04-23 15:23 25.03262 123.04087 34919 ft 477 kts 99°
2026-04-23 15:23 25.02901 123.07690 34941 ft 473 kts 99°
2026-04-23 15:24 25.02177 123.14866 34944 ft 474 kts 99°
2026-04-23 15:24 25.01448 123.22085 34940 ft 471 kts 99°
2026-04-23 15:25 25.00852 123.27952 35239 ft 418 kts 107°
2026-04-23 15:25 25.00340 123.32920 34953 ft 488 kts 99°
2026-04-23 15:25 25.00092 123.35349 35191 ft 440 kts 89°
2026-04-23 15:25 24.99622 123.38792 33419 ft 482 kts 105°
2026-04-23 15:26 24.99299 123.43135 34849 ft 499 kts 97°
2026-04-23 15:26 24.98739 123.48461 34927 ft 521 kts 99°
2026-04-23 15:26 24.98333 123.52413 34921 ft 521 kts 99°
2026-04-23 15:27 24.97518 123.60297 34917 ft 520 kts 99°
2026-04-23 15:27 24.97249 123.62927 35126 ft 459 kts 107°
2026-04-23 15:27 24.96699 123.68159 34920 ft 520 kts 99°
2026-04-23 15:28 24.95861 123.76143 34917 ft 519 kts 99°
2026-04-23 15:28 24.95025 123.84072 34917 ft 520 kts 99°
2026-04-23 15:28 24.94760 123.86614 35072 ft 468 kts 97°
2026-04-23 15:29 24.94185 123.91995 34923 ft 521 kts 99°
2026-04-23 15:29 24.93339 123.99938 34904 ft 523 kts 99°
2026-04-23 15:30 24.92439 124.07888 34916 ft 524 kts 99°
2026-04-23 15:30 24.91493 124.15839 34916 ft 526 kts 99°
2026-04-23 15:31 24.90546 124.23808 34911 ft 527 kts 99°
2026-04-23 15:31 24.89798 124.30265 34678 ft 479 kts 99°
2026-04-23 15:31 24.89127 124.35823 34898 ft 526 kts 99°
2026-04-23 15:32 24.88655 124.39803 34906 ft 525 kts 99°
2026-04-23 15:32 24.87706 124.47775 34890 ft 524 kts 99°
2026-04-23 15:33 24.86760 124.55683 34893 ft 522 kts 99°
2026-04-23 15:33 24.85809 124.63593 34889 ft 521 kts 99°
2026-04-23 15:34 24.84852 124.71516 34896 ft 521 kts 99°
2026-04-23 15:34 24.83894 124.79416 34892 ft 520 kts 99°
2026-04-23 15:34 24.83579 124.81899 34846 ft 467 kts 101°
2026-04-23 15:35 24.82935 124.87292 34890 ft 519 kts 99°
2026-04-23 15:35 24.81968 124.95187 34887 ft 519 kts 99°
2026-04-23 15:36 24.81004 125.03021 34884 ft 519 kts 99°
2026-04-23 15:36 24.80062 125.10655 34885 ft 519 kts 99°
2026-04-23 15:37 24.79061 125.18739 34882 ft 518 kts 99°
2026-04-23 15:37 24.78420 125.25299 34866 ft 519 kts 90°
2026-04-23 15:37 24.79117 125.30540 34886 ft 518 kts 73°
2026-04-23 15:38 24.80369 125.34239 34887 ft 516 kts 62°
2026-04-23 15:38 24.84135 125.40936 34879 ft 515 kts 54°
2026-04-23 15:39 24.88037 125.47577 34898 ft 519 kts 55°
2026-04-23 15:39 24.91883 125.54278 34887 ft 517 kts 56°
2026-04-23 15:39 24.93762 125.57601 34869 ft 505 kts 56°
2026-04-23 15:40 24.95588 125.60845 34791 ft 493 kts 56°
2026-04-23 15:40 24.97386 125.64044 34504 ft 487 kts 56°
2026-04-23 15:40 24.99167 125.67209 34046 ft 486 kts 56°
2026-04-23 15:40 25.00950 125.70373 33410 ft 487 kts 55°
2026-04-23 15:41 25.02744 125.73557 32876 ft 486 kts 55°
2026-04-23 15:41 25.04516 125.76706 32465 ft 482 kts 55°
2026-04-23 15:41 25.06264 125.79816 32132 ft 476 kts 55°
2026-04-23 15:41 25.08013 125.82929 31747 ft 472 kts 55°
2026-04-23 15:42 25.09726 125.85978 31314 ft 470 kts 55°
2026-04-23 15:42 25.11444 125.89039 30865 ft 468 kts 55°
2026-04-23 15:42 25.13152 125.92082 30431 ft 466 kts 55°
2026-04-23 15:42 25.14836 125.95085 30033 ft 463 kts 55°
2026-04-23 15:43 25.16524 125.98097 29601 ft 461 kts 55°
2026-04-23 15:43 25.18209 126.01106 29148 ft 458 kts 55°
2026-04-23 15:43 25.19876 126.04085 28719 ft 455 kts 56°
2026-04-23 15:43 25.21535 126.07051 28302 ft 452 kts 56°
2026-04-23 15:44 25.23185 126.10005 27887 ft 449 kts 56°
2026-04-23 15:44 25.24817 126.12927 27483 ft 447 kts 56°
2026-04-23 15:44 25.26445 126.15844 27014 ft 445 kts 56°
2026-04-23 15:44 25.28077 126.18768 26331 ft 450 kts 56°
2026-04-23 15:45 25.29730 126.21729 25657 ft 455 kts 56°
2026-04-23 15:45 25.31393 126.24712 25075 ft 457 kts 57°
2026-04-23 15:45 25.33059 126.27706 24561 ft 457 kts 57°
2026-04-23 15:45 25.34702 126.30660 24073 ft 456 kts 57°
2026-04-23 15:46 25.36361 126.33646 23584 ft 455 kts 57°
2026-04-23 15:46 25.38018 126.36628 23024 ft 455 kts 57°
2026-04-23 15:46 25.39667 126.39598 22504 ft 452 kts 57°
2026-04-23 15:46 25.41306 126.42553 22005 ft 450 kts 57°
2026-04-23 15:47 25.42937 126.45495 21517 ft 447 kts 57°
2026-04-23 15:47 25.44558 126.48419 21022 ft 444 kts 57°
2026-04-23 15:47 25.46168 126.51326 20544 ft 441 kts 57°
2026-04-23 15:47 25.47770 126.54219 20071 ft 439 kts 57°
2026-04-23 15:48 25.49358 126.57096 19610 ft 437 kts 58°
2026-04-23 15:48 25.50931 126.59956 19085 ft 428 kts 58°
2026-04-23 15:48 25.52445 126.62713 18648 ft 420 kts 58°
2026-04-23 15:48 25.53965 126.65483 18143 ft 413 kts 58°
2026-04-23 15:49 25.55454 126.68198 17644 ft 412 kts 58°
2026-04-23 15:49 25.56936 126.70900 17157 ft 410 kts 58°
2026-04-23 15:49 25.58419 126.73606 16676 ft 408 kts 58°
2026-04-23 15:49 25.59890 126.76290 16202 ft 406 kts 58°
2026-04-23 15:50 25.61345 126.78946 15743 ft 404 kts 58°
2026-04-23 15:50 25.62790 126.81588 15280 ft 403 kts 58°
2026-04-23 15:50 25.64257 126.84269 14834 ft 401 kts 58°
2026-04-23 15:50 25.65666 126.86846 14358 ft 390 kts 58°
2026-04-23 15:51 25.67052 126.89384 13921 ft 384 kts 58°
2026-04-23 15:51 25.68429 126.91904 13480 ft 383 kts 58°
2026-04-23 15:51 25.69823 126.94457 13031 ft 380 kts 58°
2026-04-23 15:51 25.71172 126.96931 12599 ft 378 kts 58°
2026-04-23 15:52 25.72532 126.99423 12153 ft 376 kts 58°
2026-04-23 15:52 25.73886 127.01908 11716 ft 375 kts 58°
2026-04-23 15:52 25.75229 127.04375 11276 ft 373 kts 58°
2026-04-23 15:52 25.76561 127.06822 10827 ft 366 kts 58°
2026-04-23 15:53 25.77858 127.09208 10528 ft 355 kts 58°
2026-04-23 15:53 25.79117 127.11524 10345 ft 346 kts 58°
2026-04-23 15:53 25.80335 127.13765 10198 ft 329 kts 58°
2026-04-23 15:53 25.81485 127.15883 10059 ft 316 kts 58°
2026-04-23 15:54 25.82612 127.17958 9837 ft 312 kts 58°
2026-04-23 15:54 25.83733 127.20024 9489 ft 312 kts 58°
2026-04-23 15:54 25.84840 127.22064 9150 ft 311 kts 58°
2026-04-23 15:54 25.85529 127.23350 8708 ft 287 kts 59°
2026-04-23 15:55 25.87043 127.26127 8484 ft 304 kts 58°
2026-04-23 15:55 25.88129 127.28132 8148 ft 304 kts 58°
2026-04-23 15:55 25.89220 127.30146 7827 ft 304 kts 59°
2026-04-23 15:55 25.90107 127.32147 7397 ft 295 kts 72°
2026-04-23 15:56 25.90649 127.34443 7165 ft 295 kts 77°
2026-04-23 15:56 25.91112 127.36633 6838 ft 288 kts 77°
2026-04-23 15:56 25.91567 127.38787 6530 ft 287 kts 77°
2026-04-23 15:56 25.92036 127.40943 6202 ft 287 kts 77°
2026-04-23 15:57 25.92517 127.43093 5870 ft 285 kts 76°
2026-04-23 15:57 25.93003 127.45225 5539 ft 285 kts 76°
2026-04-23 15:57 25.93499 127.47368 5216 ft 285 kts 75°
2026-04-23 15:57 25.93982 127.49458 4887 ft 274 kts 76°
2026-04-23 15:58 25.94445 127.51461 4569 ft 263 kts 75°
2026-04-23 15:58 25.94745 127.52753 4378 ft 256 kts 75°
2026-04-23 15:58 25.95185 127.54640 4264 ft 253 kts 75°
2026-04-23 15:58 25.95629 127.56544 4160 ft 255 kts 75°
2026-04-23 15:59 25.96476 127.58938 3949 ft 249 kts 47°
2026-04-23 15:59 25.97349 127.59748 3784 ft 247 kts 26°
2026-04-23 15:59 25.98887 127.60616 3540 ft 247 kts 24°
2026-04-23 15:59 26.00386 127.61480 3424 ft 240 kts 25°
2026-04-23 16:00 26.01854 127.62331 3114 ft 233 kts 24°
2026-04-23 16:00 26.03249 127.63138 2880 ft 220 kts 24°
2026-04-23 16:00 26.04616 127.63756 2607 ft 204 kts
2026-04-23 16:00 26.06008 127.63855 2311 ft 198 kts 360°
2026-04-23 16:01 26.06734 127.63861 2167 ft 193 kts 358°
2026-04-23 16:01 26.10786 127.63691 1398 ft 148 kts 355°
2026-04-23 16:02 26.11799 127.63641 1242 ft 144 kts 356°
2026-04-23 16:02 26.12783 127.63593 1046 ft 141 kts 354°
2026-04-23 16:02 26.13380 127.63572 790 ft 144 kts 354°
2026-04-23 16:02 26.14685 127.63501 663 ft 133 kts 358°
2026-04-23 16:03 26.15629 127.63460 521 ft 142 kts 357°
2026-04-23 16:03 26.16620 127.63412 323 ft 140 kts 356°
2026-04-23 16:03 26.17580 127.63367 110 ft 133 kts 356°
2026-04-23 16:03 26.18365 127.63332 29 ft 125 kts 356°
2026-04-23 16:04 26.19159 127.63294 20 ft 104 kts 358°
2026-04-23 16:04 26.19529 127.63277 22 ft 40 kts 359°
2026-04-23 16:04 26.19754 127.63348 27 ft 30 kts 26°
2026-04-23 16:04 26.19885 127.63422 25 ft 30 kts 27°
2026-04-23 16:05 26.19945 127.63446 25 ft 14 kts
2026-04-23 16:05 26.20127 127.63443 23 ft 30 kts 359°
2026-04-23 16:05 26.20335 127.63438 22 ft 30 kts 358°
2026-04-23 16:05 26.20250 127.63434 22 ft 10 kts 358°
2026-04-23 16:06 26.20298 127.63474 24 ft 10 kts 75°
2026-04-23 16:06 26.20303 127.63551 22 ft 10 kts 87°
2026-04-23 16:06 26.20306 127.63634 26 ft 11 kts 88°
2026-04-23 16:06 26.20310 127.63725 24 ft 13 kts 87°
2026-04-23 16:07 26.20314 127.63833 23 ft 15 kts 87°
2026-04-23 16:07 26.20319 127.63954 26 ft 16 kts 87°
2026-04-23 16:07 26.20324 127.64083 25 ft 17 kts 88°
2026-04-23 16:07 26.20328 127.64207 22 ft 14 kts 88°
2026-04-23 16:08 26.20340 127.64298 25 ft 11 kts 58°
2026-04-23 16:08 26.20416 127.64314 25 ft 12 kts 357°
2026-04-23 16:08 26.20496 127.64310 24 ft 12 kts 357°
2026-04-23 16:08 26.20577 127.64315 25 ft 12 kts 11°
2026-04-23 16:09 26.20655 127.64334 23 ft 12 kts 12°
2026-04-23 16:09 26.20735 127.64354 23 ft 12 kts 12°
2026-04-23 16:09 26.20818 127.64374 23 ft 11 kts 13°
2026-04-23 16:09 26.20873 127.64394 24 ft 2 kts 30°
2026-04-23 16:10 26.20876 127.64397 24 ft 0 kts 33°
2026-04-23 16:10 26.20879 127.64399 23 ft 2 kts 33°
2026-04-23 16:10 26.20911 127.64430 23 ft 9 kts 51°
2026-04-23 16:10 26.20938 127.64491 27 ft 9 kts 68°
2026-04-23 16:11 26.20961 127.64559 23 ft 10 kts 69°
2026-04-23 16:11 26.20978 127.64636 24 ft 11 kts 84°
2026-04-23 16:11 26.20984 127.64719 26 ft 10 kts 73°
2026-04-23 16:11 26.21045 127.64751 24 ft 11 kts 357°
2026-04-23 16:12 26.21121 127.64748 24 ft 11 kts 358°
2026-04-23 16:12 26.21196 127.64745 25 ft 11 kts 358°
2026-04-23 16:12 26.21272 127.64741 27 ft 11 kts 358°
2026-04-23 16:12 26.21313 127.64795 32 ft 10 kts 86°
2026-04-23 16:13 26.21286 127.64862 26 ft 9 kts 147°
2026-04-23 16:13 26.21148 127.64878 29 ft 12 kts 178°
2026-04-23 16:13 26.21060 127.64882 28 ft 12 kts 177°
2026-04-23 16:14 26.21017 127.64885 28 ft 3 kts 167°
2026-04-23 16:14 26.21006 127.64906 28 ft 3 kts 106°
2026-04-23 16:14 26.21006 127.64932 31 ft 3 kts 89°
2026-04-23 16:14 26.21006 127.64958 31 ft 4 kts 89°
2026-04-23 16:15 26.21006 127.64968 26 ft 0 kts 88°